Showing default

GEMS2-AMETHYST, 68505

Orbit data source: Space-Track

GEMS2-AMETHYST, 68505 is an American payload satellite in SSO that was launched on Mon, 30 Mar 2026 UTC via an FALCON 9 launch vehicle from the Air Force Western Test Range (AFWTR). Payload-class satellites include a variety of spacecraft equipped with specific instruments for various scientific and technological missions. These include communications satellites like Starlink; space stations such as the ISS; scientific satellites like the Hubble; Earth observation satellites from companies like Planet Labs, Umbra, and HawkEye 360; GPS; miniature CubeSats for education and research; and military/defense satellites.

Loading next visibility...
Identifier
68505, 2026-067CT
Orbit
SSO
Country
Flag of USUS
Related business
Manufacturer
OMS
Mission
Operational spacecraft
Bus & Motor
CUBESAT 6U, Unknown motor
Mass
10 kg wet, ~10 kg dry
Launch date (UTC)
2026-03-30 (1 month ago)
Launch vehicle
FALCON 9
Launch site
Air Force Western Test Range (AFWTR)
Object type
Payload
Rocket body
Debris
Shape & HBR
Unknown shape, 14.5 m
Radar Cross Section
RCS unknown

Expand to show TLE details & history
Last TLE update: 10 hours ago

TLE from 10 hours ago
0 GEMS2-AMETHYST
1 68505U 26067CT  26127.15805801  .00004214  00000-0  43364-3 0  9995
2 68505  97.7586  85.9967 0005626 162.6554 197.4857 14.90820121  5600
Epoch: 2026-05-07T03:47Z
TLE epoch observation values (Epoch: 2026-05-07T03:47:36.212Z)
Latitude
-0.00004°
Longitude
164.08761°
Altitude
602.16 km
Speed
7.556 km/s
True Right ascension
05h 43m 59s
True Declination
0° 00' 00"
Sunlit
Object was in daylight at epoch
Visualization orbit readout
Latitude
Unknown
Longitude
Unknown
Altitude
Unknown
Speed
Unknown
Apparent Right ascension
Unknown
Apparent Declination
Unknown
Sunlit
N/A
Visualization observer readout
Local Sidereal Time
22:04:47
Azimuth
Unknown
Elevation
Unknown
Doppler factor
Unknown
Orbital elements
Apogee altitude
596.319 km
Perigee altitude
588.475 km
Semi-major axis
6,970.534 km
Eccentricity
0.00056
Inclination
97.7586°
RAAN
85.9967°
Arg. of periapsis
162.6554°
True anomaly
197.46634°
Mean anomaly
197.4857°
Eccentric anomaly
197.47602°
Mean motion
3.72944 °/min
Orbital period
96.53 mins
BSTAR
0.00043364
Loading maneuver chart data...
Computing Atmospheric mass density...
Loading historical data...
Loading historical data...
Loading historical data...
Loading historical data...
Loading historical data...
Loading historical data...
Loading historical data...

Documentation

Showing up to 5 results
|